RH
75 78 78 77 77 76 73 70 67 65 62 59 58 58 59 56 53 49 44 40 37 35 31 27 24 21 17 18 21 22 19 15 11 8 7 7 6 6 8 9 9 15 27 36 41 45 55 75 94 99 99 100 100 99 100 101 100 98 98 99 97 94 92 88 86 91 97 99 98 95 93 90 88 85 72 50 37 36 35 34 35 36 35 34 35
81 85 86 85 85 84 83 81 77 74 69 66 63 60 58 54 49 46 40 36 34 31 29 26 23 21 23 28 27 20 15 11 8 7 9 11 10 9 8 9 10 13 18 24 31 38 39 47 69 90 99 99 99 100 99 99 100 100 99 100 100 99 95 91 89 91 95 97 97 96 96 93 89 87 78 59 41 36 39 40 38 38 36 35 35
87 88 89 88 88 86 83 78 73 68 63 60 58 55 52 49 44 39 36 38 41 45 49 44 40 43 50 58 57 44 34 29 25 26 30 30 28 25 20 16 13 14 19 21 20 27 35 37 43 63 86 98 99 99 100 100 99 100 100 99 100 100 98 96 92 89 90 93 96 100 97 95 94 87 76 64 49 39 38 41 40 39 39 39 39
91 91 89 86 82 77 73 68 65 61 59 57 54 52 49 46 40 34 42 54 65 79 83 71 69 80 87 92 91 83 72 62 56 55 55 56 55 48 37 32 27 21 21 27 26 22 25 34 38 40 56 81 97 99 99 99 99 99 100 100 99 100 100 99 94 90 91 90 92 95 96 98 96 81 68 65 62 51 41 40 42 42 43 43 41
90 86 80 75 71 69 67 65 62 57 56 54 51 50 48 43 35 36 55 73 82 90 88 75 75 91 98 98 98 97 94 87 79 73 68 67 68 61 50 43 41 38 32 36 47 45 30 25 32 35 36 50 74 92 98 99 99 98 99 100 100 99 100 100 98 97 97 93 90 91 93 95 86 73 72 74 70 62 50 43 44 44 45 48 48
80 73 68 65 64 64 61 57 52 45 43 46 49 50 44 38 37 50 73 88 92 90 82 73 76 84 90 91 95 96 96 95 92 87 80 74 72 67 58 47 43 46 45 44 57 73 69 50 35 31 30 33 45 66 85 95 99 100 99 99 100 100 99 100 100 100 100 98 97 94 92 92 86 83 86 82 76 74 66 56 49 49 52 55 57
68 63 60 58 56 55 51 46 40 37 40 47 51 47 42 40 42 63 89 98 99 95 86 84 87 88 88 88 90 96 99 95 91 88 83 78 72 65 61 56 47 44 47 49 53 66 81 83 69 49 37 32 36 46 61 77 89 95 99 99 99 100 100 100 99 99 100 99 100 99 96 95 94 93 91 87 85 84 77 68 58 54 56 57 56
59 57 54 52 50 47 43 39 39 45 54 59 56 48 46 48 48 66 93 98 95 96 93 94 96 94 95 94 89 90 98 97 89 83 77 72 69 65 65 68 63 52 48 51 55 57 64 75 81 75 58 44 43 48 52 62 76 85 91 96 98 99 99 100 99 99 100 99 99 100 99 98 95 93 91 90 91 87 81 74 64 55 54 55 56
56 54 53 53 50 45 42 43 49 60 66 63 57 51 50 58 65 75 90 91 87 92 96 98 99 98 99 100 95 92 98 99 92 83 72 67 71 74 74 75 76 69 58 55 57 59 60 61 66 71 66 58 59 63 62 64 75 85 89 89 91 95 98 100 100 100 100 99 99 98 99 100 99 96 94 93 93 91 87 79 69 62 53 47 50
51 50 52 53 50 47 48 51 58 65 64 60 59 58 58 68 78 80 81 84 85 89 95 96 96 98 99 100 99 98 99 100 97 89 77 71 73 79 83 81 81 80 71 65 63 61 61 62 63 62 59 56 57 64 70 71 76 86 94 94 90 90 94 98 100 100 100 100 99 99 99 100 100 99 97 94 92 92 90 84 78 71 56 43 46
51 52 53 52 50 49 48 53 60 58 56 64 69 67 68 71 76 75 72 77 84 85 90 91 88 89 90 91 93 93 93 95 95 91 86 80 73 77 86 85 83 87 83 75 71 70 68 66 67 69 71 71 62 54 57 67 77 85 93 99 98 94 93 97 100 100 100 100 100 100 100 99 99 100 98 96 95 93 92 89 84 80 69 55 50
57 56 54 54 52 49 50 57 59 51 55 76 86 82 81 81 80 79 75 76 80 80 80 81 80 78 75 75 78 81 85 87 88 84 82 83 80 81 85 85 87 94 94 86 77 76 78 76 74 75 84 94 90 74 56 54 68 83 91 96 99 100 98 98 100 99 99 100 100 100 100 99 100 100 98 96 94 93 95 95 91 87 84 72 59
50 52 54 55 55 56 57 55 48 45 58 78 89 92 95 95 93 90 86 83 82 80 77 75 73 69 67 69 72 75 78 82 83 79 78 88 95 91 87 85 89 97 99 96 90 88 89 88 82 78 82 92 98 97 84 66 62 73 86 93 96 98 100 100 100 99 99 99 100 100 100 100 100 100 99 98 97 95 96 96 95 92 89 83 76
48 55 59 60 62 59 51 47 49 58 69 75 80 90 94 95 96 94 91 88 81 77 74 71 69 69 73 78 81 82 82 83 84 81 83 95 101 97 91 86 88 97 100 97 98 97 94 92 88 82 82 86 89 93 96 87 74 70 78 89 94 94 95 98 100 99 100 100 99 99 99 100 100 99 100 100 100 99 96 91 92 96 95 90 86
57 62 64 61 54 44 43 60 76 80 80 76 74 82 87 88 94 97 96 90 81 76 75 73 74 78 85 88 87 88 88 87 89 86 85 90 91 91 91 87 87 97 99 96 98 99 95 94 94 88 83 83 84 87 89 90 86 81 79 86 93 94 93 96 98 99 99 100 100 99 99 100 100 100 100 100 99 100 99 94 93 96 99 97 91
62 62 54 47 44 50 70 91 99 95 90 80 72 78 88 93 97 101 101 93 81 76 78 81 83 86 91 91 90 91 90 87 88 88 84 81 80 84 89 89 91 99 100 96 96 98 97 96 94 90 87 84 83 85 87 88 90 87 82 84 90 95 98 98 99 100 99 100 100 100 99 98 99 100 100 100 100 99 99 99 98 95 95 98 96
54 43 43 56 70 84 98 102 101 102 99 86 76 78 86 94 100 103 100 88 77 77 82 85 88 89 90 90 89 90 92 90 86 84 83 79 75 79 88 91 93 99 102 98 96 98 97 96 94 91 90 90 88 89 89 90 95 92 85 83 87 95 101 100 100 101 100 100 100 100 99 96 97 100 100 100 100 100 99 99 99 97 95 96 95
34 36 55 76 88 96 99 100 101 102 100 96 90 84 85 94 100 99 92 81 77 84 90 91 90 88 87 87 86 86 91 97 93 86 84 84 80 78 84 90 91 95 100 100 99 99 98 97 95 91 93 96 93 91 90 89 95 98 89 81 83 92 100 100 100 100 100 100 100 100 100 98 98 100 100 100 99 100 100 99 99 98 99 99 95
34 50 71 79 85 96 99 99 101 99 99 100 97 92 92 94 91 85 84 87 91 95 98 99 97 92 88 85 83 82 85 93 98 94 91 90 88 83 82 85 87 89 95 100 100 99 99 99 96 92 95 97 94 93 94 90 91 95 90 81 80 90 100 100 99 100 100 100 100 100 100 99 100 100 100 100 100 99 99 99 100 99 100 101 98
51 59 78 83 84 92 95 92 90 89 89 89 92 95 94 87 82 84 89 94 98 100 100 102 101 98 93 85 80 78 78 85 92 97 98 92 86 85 83 81 84 86 91 98 101 100 99 100 100 98 96 94 93 95 97 93 86 85 86 83 79 84 93 99 100 100 99 100 100 100 100 100 100 100 100 100 99 99 99 99 100 100 100 100 100
66 73 90 85 69 70 79 81 79 79 80 80 83 87 86 85 88 95 98 97 97 100 100 101 102 101 95 86 80 76 74 78 83 90 96 91 84 87 89 82 78 82 89 98 101 100 100 100 99 100 99 95 93 95 97 96 89 80 79 82 80 78 80 86 95 99 99 100 100 99 100 100 100 100 100 100 100 99 100 99 100 100 100 99 100
79 94 102 83 58 55 65 70 74 77 79 80 80 80 81 89 98 101 100 100 99 99 99 100 100 97 90 83 79 75 72 74 77 80 85 87 83 86 92 89 80 76 83 97 102 100 100 101 98 99 101 98 94 96 99 100 97 88 78 74 75 76 73 73 79 87 93 97 99 100 100 100 100 100 100 100 100 100 100 100 100 100 99 99 99
94 103 98 77 54 51 56 61 67 72 80 87 89 88 87 90 97 99 97 99 100 99 99 99 96 89 82 78 77 73 71 73 76 74 74 79 81 82 90 96 92 81 77 88 100 102 99 100 101 100 101 100 95 95 99 100 100 98 89 79 72 70 70 69 70 74 80 85 89 92 96 99 100 100 100 100 100 100 100 99 99 100 100 100 99
104 99 90 73 57 53 52 55 59 59 68 84 93 99 99 97 98 97 95 95 95 94 95 94 93 88 81 78 77 72 70 74 78 73 70 73 75 79 89 97 98 92 81 80 93 102 100 100 103 101 100 99 93 92 98 100 99 100 100 95 86 75 68 66 67 69 71 75 77 79 83 87 92 94 97 99 100 100 100 100 99 99 99 100 100
98 92 91 84 73 60 50 54 61 53 50 63 81 95 100 97 94 93 92 92 91 90 90 91 91 88 83 81 77 71 70 76 80 76 72 74 76 80 89 96 97 97 89 80 83 95 99 99 101 101 99 98 94 92 97 100 99 101 101 101 98 89 78 69 64 64 66 67 68 69 71 74 77 80 82 87 91 94 97 98 99 100 99 99 99
92 93 99 98 92 81 66 57 52 46 42 44 61 86 100 98 89 86 86 85 86 87 86 88 87 84 84 81 73 71 73 78 85 84 78 76 77 79 82 87 92 97 95 86 81 87 94 97 97 95 93 93 91 91 96 100 101 102 101 100 99 94 87 79 70 64 62 62 61 61 63 65 66 67 67 69 72 74 78 82 87 92 95 98 100
93 98 103 102 100 100 95 74 46 37 39 38 50 75 93 97 93 91 88 87 88 87 83 86 85 82 81 77 72 75 77 81 89 90 84 79 78 78 75 75 84 94 97 94 86 84 88 94 95 92 89 88 87 88 94 100 101 100 100 101 100 96 90 86 80 70 63 60 57 55 55 56 56 58 59 60 60 59 59 60 62 66 72 79 87
95 100 102 101 98 95 92 80 55 37 30 34 53 76 87 89 90 92 92 92 94 91 86 87 85 81 79 76 75 78 81 87 95 95 92 89 85 82 78 77 87 96 99 98 94 89 86 89 92 93 91 89 89 88 90 96 99 100 100 100 100 99 94 89 85 77 68 62 58 53 50 49 47 47 48 49 50 49 47 45 44 44 46 50 56
101 102 101 100 101 93 81 75 64 45 29 28 49 77 92 93 92 94 95 95 96 94 90 88 84 83 84 81 80 84 88 94 98 100 101 97 90 87 87 88 90 92 92 94 95 93 90 87 88 91 94 95 95 91 88 92 97 98 98 99 99 100 99 95 91 84 75 66 59 52 46 43 41 39 38 38 37 38 37 35 33 33 33 34 35
101 104 101 100 103 99 87 77 64 44 30 33 56 82 94 95 95 96 96 98 100 97 95 92 87 87 90 88 88 91 93 95 98 102 102 96 91 90 90 85 79 80 88 94 97 97 96 93 90 89 94 99 100 94 87 89 95 97 97 98 100 100 100 97 96 92 80 65 54 46 40 38 37 34 32 31 29 29 28 27 27 27 28 29 29
98 103 101 100 102 99 92 83 67 42 26 38 69 91 95 95 99 100 98 100 102 100 98 96 92 90 93 95 96 95 93 93 97 99 97 94 95 95 93 88 85 90 97 99 99 99 100 100 98 94 93 96 99 96 89 88 94 99 99 98 100 101 99 97 95 89 74 57 47 42 40 39 38 34 32 31 28 27 24 23 23 23 24 24 25
99 101 100 100 101 100 98 92 74 45 24 39 74 93 95 96 100 101 100 100 101 99 97 96 94 94 96 100 101 96 89 89 94 97 98 99 100 99 98 98 98 99 99 98 98 100 101 102 102 99 95 93 92 92 90 89 94 100 100 99 100 101 99 96 91 81 65 51 47 48 50 51 49 48 47 45 41 39 35 31 29 27 27 25 25
102 100 100 102 101 100 102 91 67 38 28 54 87 96 94 97 101 102 101 100 100 99 98 97 97 98 99 102 101 94 88 91 97 100 102 101 101 101 102 102 101 100 100 101 102 102 101 100 97 98 98 97 95 94 92 91 94 98 100 100 100 99 97 92 86 78 65 55 53 55 57 58 57 57 57 55 52 51 51 49 47 43 39 33 31
102 98 98 102 102 101 95 76 50 28 34 69 96 98 97 100 102 102 100 99 100 99 99 99 100 101 101 101 98 92 92 98 101 101 101 100 101 102 101 100 101 101 101 101 101 100 99 97 95 97 100 99 100 100 98 97 96 98 101 99 94 91 90 87 81 75 69 64 63 63 63 64 63 60 57 57 59 60 62 62 61 59 56 49 44
98 94 94 98 102 100 84 57 33 23 45 84 100 98 100 102 101 102 101 99 100 100 100 100 101 103 102 98 95 94 97 101 101 100 100 100 100 101 100 100 100 100 100 100 100 99 98 98 98 99 100 100 100 101 100 99 98 99 99 93 88 86 84 79 77 75 70 64 60 60 61 62 60 55 52 56 62 66 70 72 72 70 67 63 59
97 97 96 96 102 98 71 42 22 25 60 97 102 97 100 101 101 102 101 99 100 100 100 100 101 102 101 99 99 99 100 101 100 100 100 100 100 100 99 100 100 100 100 99 99 99 98 99 99 99 99 100 100 100 100 99 97 95 89 84 87 91 84 75 75 76 70 62 57 58 61 58 53 49 49 54 61 66 71 74 75 73 69 64 62
97 102 98 98 104 87 51 26 17 32 73 102 100 98 102 100 100 102 100 100 100 100 100 100 100 102 101 100 100 100 100 100 100 100 100 100 100 99 100 100 100 100 99 98 99 100 99 99 99 99 100 99 99 100 99 96 93 90 86 82 83 85 81 75 70 67 66 64 61 65 70 64 53 47 47 52 59 65 71 74 74 72 67 62 61
98 99 96 101 93 60 28 17 18 43 86 103 96 97 101 100 101 102 99 100 100 99 100 100 100 101 100 100 100 100 100 100 100 100 100 99 100 100 100 100 99 99 98 98 100 101 101 101 100 99 98 93 90 88 86 82 79 78 78 75 71 72 73 71 65 61 61 59 55 59 68 65 55 49 51 56 60 65 69 69 68 70 70 69 67
95 93 93 91 66 31 16 15 21 55 95 103 96 99 101 100 101 100 99 100 100 99 100 100 100 100 100 100 100 100 100 100 100 100 101 101 101 100 99 100 102 102 100 101 102 100 98 96 90 87 86 80 74 74 76 77 76 76 79 78 76 74 72 69 66 63 61 58 54 55 60 62 58 55 56 58 62 68 68 61 62 72 78 75 73
87 87 78 57 31 16 13 14 37 79 102 98 96 100 100 100 101 100 100 100 100 100 100 100 100 100 100 100 100 100 100 100 100 100 100 98 96 98 100 98 96 93 90 95 98 94 90 89 88 88 89 87 84 84 87 88 86 85 88 91 93 92 89 86 85 83 78 74 69 65 64 64 60 59 65 70 71 75 73 64 65 77 81 78 80
79 77 56 25 12 15 11 16 55 97 104 95 97 100 99 101 101 99 100 100 100 100 100 100 100 100 100 100 100 100 100 100 100 100 98 93 92 98 101 96 91 89 87 89 91 87 86 91 96 98 98 98 97 97 96 95 94 95 97 99 100 100 100 100 99 97 93 86 78 74 74 72 69 75 88 89 79 77 80 78 78 86 91 92 95
69 52 26 11 12 13 11 33 77 103 101 97 98 98 100 102 100 99 101 100 100 100 99 100 100 100 100 100 99 100 100 99 98 98 99 98 97 99 99 95 92 89 86 88 90 92 95 99 101 101 101 100 99 99 99 98 98 100 101 100 100 99 99 100 100 101 100 92 83 79 81 84 87 93 97 88 78 83 93 95 94 97 100 101 101
51 27 11 12 14 8 22 62 97 104 99 98 97 98 101 101 99 100 100 99 100 100 100 100 100 100 100 100 100 100 101 99 97 97 99 99 96 92 87 85 84 82 83 91 96 98 99 99 98 99 100 100 99 99 98 97 95 96 96 96 96 94 93 96 99 99 97 93 89 88 92 97 99 97 91 86 87 95 100 100 99 100 100 101 101
27 15 12 14 10 15 49 89 103 101 100 100 98 99 101 100 100 100 100 100 100 100 99 100 100 100 100 100 100 100 100 100 99 99 96 92 91 91 88 87 91 93 95 100 102 100 100 99 97 96 96 96 96 95 93 92 92 94 97 97 96 93 93 95 95 90 89 92 96 99 101 100 96 92 92 95 99 101 100 99 100 100 100 100 100
13 14 14 10 13 38 79 102 101 100 102 100 99 100 100 100 101 100 99 100 100 99 100 100 99 100 100 99 97 97 98 98 96 95 95 93 95 99 99 98 99 98 97 99 97 97 100 101 100 100 98 97 98 96 93 93 96 98 100 100 99 99 99 93 83 80 85 91 94 94 92 90 91 95 99 101 101 100 99 99 99 100 99 97 97
14 14 10 12 35 73 99 101 98 101 102 99 100 100 100 100 100 100 100 100 100 100 100 99 99 100 98 97 97 98 97 95 91 90 92 92 95 100 102 101 96 92 91 93 93 95 99 99 98 98 96 95 97 98 97 98 100 101 100 99 99 100 95 81 67 64 69 74 77 81 84 87 93 99 101 101 99 97 97 99 101 100 98 97 98
15 10 13 36 72 99 104 98 99 102 100 99 100 100 100 101 100 99 100 100 100 100 100 100 100 99 97 98 99 99 98 97 97 95 93 92 95 100 100 95 90 89 90 93 96 99 100 98 97 97 96 96 98 98 98 99 100 100 98 98 98 99 94 85 79 77 79 82 87 92 94 97 99 101 101 101 100 99 99 100 99 99 99 99 100
9 17 43 76 99 104 99 99 101 100 99 100 100 99 100 101 99 100 100 100 100 99 99 100 98 96 96 98 99 99 98 99 99 98 97 97 99 99 96 90 88 90 93 96 100 101 99 98 99 100 100 100 100 100 100 100 98 96 97 98 99 99 99 98 97 97 97 98 100 100 100 101 101 101 100 100 100 100 101 99 97 98 100 101 100
28 56 85 101 104 100 99 101 101 99 100 101 99 99 101 100 99 100 100 100 100 100 99 100 99 98 98 98 97 97 97 98 98 98 99 100 97 94 92 91 93 97 97 98 100 100 99 100 100 100 100 100 100 100 100 98 95 93 95 97 98 99 100 99 99 99 99 100 99 99 100 101 101 101 101 101 100 101 100 100 99 100 100 99 100
72 93 102 102 101 101 101 100 100 100 100 100 99 100 100 99 100 100 99 100 101 100 99 100 100 100 100 98 95 94 96 98 98 97 98 99 99 98 94 90 95 101 101 99 100 100 100 100 100 100 100 100 100 100 98 96 97 99 98 97 98 99 99 97 96 95 95 95 95 95 96 98 99 100 101 101 101 100 100 100 100 100 100 100 100
100 101 99 99 102 102 99 98 100 100 99 99 100 100 99 100 100 100 100 101 101 101 101 100 100 101 101 98 96 96 99 101 99 95 92 91 96 102 100 94 95 100 100 99 100 100 100 100 100 100 100 99 100 100 98 97 100 101 98 97 99 101 100 98 98 96 93 93 93 93 95 98 100 99 100 100 100 100 100 100 100 100 100 100 100
Wind_Speed
27 28 29 31 33 35 38 41 42 44 46 50 53 54 56 59 60 61 62 63 64 65 66 67 68 68 69 69 69 70 72 72 72 69 64 58 53 50 51 51 52 54 53 51 50 49 50 52 55 58 59 60 63 61 53 47 44 47 52 54 56 59 62 63 60 55 52 52 51 50 49 48 47 47 46 45 44 43 42 41 39 38 37 36 34
29 30 32 33 35 38 40 43 46 48 51 53 55 57 60 62 63 64 65 65 66 66 64 61 58 56 55 55 58 62 62 61 59 58 57 54 49 44 43 45 47 50 53 54 53 53 52 52 54 56 58 59 60 59 57 54 50 47 48 50 52 54 59 64 64 60 57 56 54 53 52 51 51 51 50 49 48 47 46 44 42 41 40 38 37
30 32 35 37 39 42 45 48 51 53 56 57 59 61 61 61 62 62 60 58 57 55 52 47 43 42 42 42 45 49 50 47 45 44 46 47 44 38 35 38 41 45 49 52 54 56 56 55 55 55 57 59 59 57 54 55 55 52 49 48 49 51 54 59 63 63 61 58 56 56 56 55 55 55 54 53 51 49 48 46 45 43 42 40 39
30 33 36 40 43 46 49 51 53 55 58 60 61 61 61 60 59 56 51 48 45 43 42 39 35 34 35 37 39 42 42 41 39 38 38 38 39 35 29 28 33 38 44 48 51 54 57 58 57 56 56 58 61 59 55 53 53 53 51 49 50 52 53 56 60 62 63 62 60 60 59 59 60 59 57 55 53 52 50 48 46 45 44 42 41
31 36 39 43 45 46 47 49 51 54 57 59 59 60 59 59 56 51 46 43 41 40 40 39 35 34 36 38 39 40 40 39 39 38 37 36 38 38 33 27 26 30 37 42 45 48 53 57 58 57 56 57 59 61 60 56 53 52 51 50 50 53 54 54 56 58 63 65 65 65 64 63 63 61 59 58 56 54 52 50 49 48 47 45 43
35 40 43 44 44 45 47 49 53 57 58 58 58 57 57 54 51 46 41 39 39 39 40 39 38 36 37 39 41 41 39 39 39 38 38 38 39 41 40 34 27 26 30 36 41 43 47 51 55 56 56 56 57 60 61 60 57 55 53 52 50 50 52 54 55 55 57 63 66 67 67 66 64 62 61 60 58 57 55 54 53 51 50 49 47
42 45 46 47 48 48 51 54 58 59 58 56 55 54 52 50 48 43 38 35 36 38 39 38 36 35 36 36 38 39 39 39 38 38 38 39 40 41 41 39 33 29 28 31 37 42 44 47 49 52 54 54 53 55 58 59 58 56 55 55 53 50 50 53 56 55 55 58 62 66 68 68 68 66 65 63 61 60 58 56 55 54 53 52 50
49 51 52 52 52 54 56 58 58 56 53 53 53 53 52 51 49 43 38 36 36 37 37 36 34 34 35 35 35 35 37 38 37 37 38 39 41 42 40 39 36 32 29 28 31 38 43 46 47 49 52 52 51 51 53 54 55 54 53 53 54 52 51 53 54 55 57 57 59 63 67 69 71 71 70 67 65 64 61 59 57 56 55 54 52
54 56 58 57 56 57 58 56 52 50 51 53 53 53 52 50 45 40 38 37 38 37 36 35 34 34 33 33 35 36 37 38 38 38 38 39 41 41 40 38 36 34 31 28 28 31 36 42 46 48 50 51 50 50 50 50 51 51 51 51 51 51 52 54 55 55 57 59 60 62 64 65 68 71 73 72 70 68 67 64 61 59 58 56 53
59 61 60 58 58 58 56 53 50 49 52 53 53 51 49 44 40 39 38 38 38 37 36 36 37 36 34 34 36 37 38 40 40 40 40 40 41 40 40 38 36 35 33 30 28 28 30 33 39 45 48 49 50 50 50 50 50 49 48 48 49 48 48 51 55 56 56 58 59 61 63 63 65 68 72 74 74 73 72 69 66 63 61 58 55
60 61 59 58 58 58 57 55 51 51 53 52 50 48 46 43 42 42 41 40 39 37 36 36 37 38 37 37 38 39 40 41 42 43 43 43 43 42 41 39 36 34 34 31 28 28 28 27 30 37 42 44 46 49 51 51 51 50 49 48 48 47 47 48 50 54 56 57 58 60 62 63 63 64 66 69 72 74 74 73 70 67 64 62 59
57 57 58 60 60 60 59 56 53 51 51 48 45 43 45 45 45 45 43 42 40 38 38 38 38 39 40 41 42 42 43 43 43 44 44 45 44 42 40 39 36 34 34 33 29 27 27 26 26 29 35 39 41 43 48 51 52 52 52 51 49 48 48 47 48 49 53 55 57 59 61 62 62 61 60 62 64 68 71 73 73 71 68 66 64
61 61 62 61 59 57 56 54 52 50 48 46 42 42 45 46 46 46 44 42 41 40 41 41 41 43 44 45 45 45 44 44 45 44 43 42 42 42 40 38 37 35 34 34 32 29 28 28 28 27 29 33 37 39 42 47 50 51 52 52 52 51 49 48 47 47 47 49 52 55 56 57 57 56 56 58 59 61 64 69 73 75 73 70 68
63 62 60 58 56 55 54 53 50 49 48 46 44 44 45 46 46 46 45 43 42 43 44 45 46 47 46 44 43 44 44 44 44 43 41 38 37 39 40 38 37 37 36 35 33 31 30 30 31 31 29 29 31 35 38 41 45 49 50 51 52 52 51 50 47 46 45 45 47 49 50 49 48 48 50 54 57 58 60 64 69 73 75 74 72
59 58 57 56 56 53 51 48 47 48 47 46 46 45 45 45 45 46 46 46 45 47 47 47 48 47 43 41 41 42 41 41 42 41 40 39 38 39 40 39 38 39 39 36 33 32 31 31 31 32 31 30 29 31 35 38 40 43 46 48 50 51 50 50 49 46 45 45 45 45 46 45 44 42 43 47 52 55 57 59 61 67 73 75 74
56 55 54 53 51 48 47 46 46 47 47 48 48 46 43 43 44 47 49 50 50 50 48 45 44 43 41 40 40 40 39 39 40 41 41 42 40 40 40 40 38 39 40 37 35 33 31 31 32 32 31 31 30 30 33 36 37 39 43 45 46 48 48 48 48 47 45 44 44 44 44 44 43 42 41 41 43 47 52 55 56 60 66 71 73
51 51 52 50 47 46 45 44 45 46 48 50 49 45 42 42 44 48 51 53 53 51 47 42 42 42 41 40 39 38 38 39 40 40 41 41 40 39 39 40 39 38 39 38 37 35 32 32 32 31 31 32 31 30 32 34 35 37 40 41 42 44 44 44 46 46 45 44 44 44 43 42 41 42 42 40 39 41 47 52 53 54 58 63 67
49 51 49 48 47 46 45 44 45 47 49 50 49 46 43 42 45 50 53 54 52 48 45 43 43 43 43 42 40 37 36 37 40 41 40 40 40 39 39 40 40 39 38 38 38 37 35 34 32 30 31 33 32 30 31 33 34 34 37 39 40 41 42 42 42 44 44 43 44 45 44 43 42 42 42 41 41 41 43 47 49 50 54 56 59
50 49 47 48 48 47 46 45 45 46 46 47 47 46 43 44 48 50 50 48 45 43 43 43 45 45 46 45 42 39 36 35 37 40 41 41 41 40 39 40 40 40 39 38 38 37 35 34 33 31 31 32 32 31 30 32 34 34 35 37 37 39 42 42 40 40 41 41 42 44 44 44 43 43 42 41 42 42 43 44 44 45 48 51 52
50 48 47 49 50 51 48 46 46 46 47 48 50 50 50 50 50 47 45 41 38 39 41 43 45 48 50 48 44 42 39 35 34 36 39 42 41 39 38 38 39 39 39 39 38 37 36 35 34 32 32 31 32 31 29 29 32 34 34 35 36 38 42 44 43 41 40 39 39 40 41 42 42 42 42 41 41 41 41 41 41 40 41 43 45
49 46 47 51 55 56 52 49 48 47 47 48 50 51 51 48 45 41 39 37 35 36 39 43 47 51 52 51 48 46 43 38 35 35 38 42 40 36 35 37 38 38 38 39 39 37 37 36 33 32 33 31 31 30 27 25 28 31 32 33 35 37 39 42 44 44 42 41 40 39 40 40 40 41 41 41 40 40 40 39 38 38 38 38 39
47 44 48 55 59 58 55 54 53 52 52 49 48 48 45 41 38 36 35 35 36 36 39 44 48 52 53 52 51 50 46 42 40 39 39 41 39 35 33 35 38 39 38 38 39 39 38 36 32 31 33 32 31 30 27 25 24 26 28 31 33 36 38 39 41 43 44 43 42 42 42 41 41 41 41 40 40 40 39 39 38 37 37 37 37
46 46 52 59 61 58 56 57 57 58 58 54 53 53 47 39 35 35 36 36 37 39 42 46 51 54 55 54 53 52 48 44 42 41 38 37 36 33 32 33 35 37 39 40 41 40 39 37 35 33 34 34 34 33 31 29 27 25 25 26 28 32 35 37 38 39 41 42 43 44 44 43 43 43 43 42 41 40 39 38 39 38 38 38 38
47 50 58 62 61 60 61 60 60 61 60 59 60 58 51 44 40 41 42 42 43 44 47 50 53 56 57 57 56 54 48 44 43 41 37 35 34 31 30 31 32 35 38 41 43 42 40 38 37 37 37 37 36 34 32 31 30 28 26 25 25 27 30 33 35 37 38 39 41 43 44 44 44 44 45 45 44 43 42 40 40 39 40 40 40
52 58 63 63 63 64 64 62 62 65 64 61 63 62 58 54 51 49 48 48 50 51 53 54 57 60 61 61 59 53 46 43 42 39 34 32 32 29 28 29 30 32 36 41 44 45 43 42 40 40 40 40 36 34 32 32 31 29 29 28 27 26 26 27 30 33 36 38 39 40 41 42 42 43 44 45 45 45 45 44 43 42 41 41 41
58 63 64 64 65 67 66 65 65 67 68 66 65 64 64 65 63 59 55 52 51 51 52 54 57 59 61 62 57 48 43 40 37 35 32 30 30 30 29 28 28 30 33 38 43 46 47 47 46 45 44 42 38 36 34 32 31 30 29 29 29 28 26 25 26 29 32 35 37 38 39 40 40 41 43 43 43 44 44 45 45 44 44 43 43
63 65 64 65 66 65 66 68 68 68 69 69 69 68 66 66 66 64 60 56 52 50 48 47 49 49 50 51 46 40 39 36 32 31 30 28 29 30 29 28 28 30 32 35 40 45 48 49 50 49 47 43 40 39 37 34 33 31 30 29 29 29 28 26 26 27 29 32 35 36 36 37 38 39 40 40 40 41 41 41 42 43 43 44 44
65 66 66 68 68 67 67 69 71 71 69 67 69 72 72 70 67 64 60 55 51 50 47 44 44 43 41 39 35 34 35 31 27 27 27 26 28 29 29 29 29 31 32 34 38 42 46 49 51 51 49 45 42 40 38 35 33 32 32 31 30 30 30 29 27 27 27 29 32 34 35 35 36 36 36 37 37 38 38 39 39 40 41 42 43
66 66 67 68 69 71 72 72 74 75 73 70 68 71 73 72 68 62 58 54 50 48 45 42 40 38 36 32 28 28 29 26 24 24 23 25 26 27 29 30 30 32 33 34 36 38 42 45 48 50 49 46 44 43 40 36 34 32 32 32 31 31 31 32 31 29 28 27 30 33 34 34 34 35 35 36 36 37 38 39 39 39 40 41 41
66 67 68 68 68 70 73 74 74 75 74 73 72 72 73 70 65 59 53 50 49 47 43 40 37 34 31 28 24 22 23 23 23 22 22 24 25 27 29 29 29 30 31 32 33 35 37 40 43 46 47 47 46 44 41 37 34 32 30 30 31 32 33 34 33 32 30 28 28 30 31 31 32 33 34 35 36 37 38 40 40 41 42 42 43
68 67 68 69 69 71 72 74 76 77 73 70 71 73 73 68 62 56 51 47 45 45 42 38 34 31 28 25 21 18 19 20 22 22 21 21 23 25 28 27 27 27 27 28 29 29 31 34 36 40 43 46 47 46 43 39 36 33 31 30 30 31 32 33 32 31 30 28 27 27 27 27 28 29 30 31 33 34 36 38 39 41 42 43 44
68 68 69 69 70 71 72 73 76 78 74 71 71 73 71 67 59 53 49 46 43 43 40 35 31 29 25 22 19 16 16 18 19 20 19 20 21 23 23 22 21 21 21 21 21 21 22 24 27 30 35 39 43 43 42 40 38 36 34 31 29 29 30 30 30 29 28 27 25 25 25 26 26 27 28 29 30 31 33 35 36 38 40 42 43
67 68 69 70 70 70 71 74 76 75 72 70 71 72 70 65 57 50 47 44 41 40 37 32 29 26 23 19 16 14 14 15 16 17 18 18 19 17 16 15 14 13 12 11 11 11 12 13 14 16 19 24 30 34 36 37 36 35 32 29 28 28 29 30 29 28 27 26 25 25 26 26 26 27 28 30 30 31 32 33 35 36 38 40 41
66 67 68 69 70 69 70 74 75 72 68 67 68 69 67 60 53 49 45 42 39 37 33 30 26 23 19 16 13 12 12 13 14 14 14 14 12 10 9 8 6 3 1 1 1 1 2 3 4 4 6 10 14 19 24 26 27 26 25 24 25 27 29 31 30 28 27 27 27 27 28 28 27 27 28 30 31 32 33 34 35 36 38 39 40
65 65 67 67 67 68 73 76 73 69 66 67 67 67 63 56 50 46 43 40 37 33 30 26 22 19 15 12 11 11 10 10 10 10 8 7 5 3 2 2 4 8 8 6 4 4 3 3 3 4 5 7 7 9 12 16 18 20 20 21 23 27 29 30 29 28 27 27 28 30 30 29 28 28 28 28 30 32 33 34 35 37 38 38 39
64 65 66 66 64 68 74 75 70 66 64 65 66 64 59 53 47 43 41 38 33 29 25 21 18 14 10 8 9 8 6 5 5 4 2 0 2 3 4 6 10 11 8 5 6 7 8 9 9 9 8 9 10 10 12 14 16 18 19 21 24 27 29 29 29 29 29 28 29 30 31 30 29 28 27 28 29 31 33 34 36 37 38 38 38
63 63 64 63 64 70 73 70 66 63 62 63 63 60 55 49 44 41 39 34 29 25 21 17 13 9 6 5 4 3 3 3 1 2 4 6 6 5 5 8 11 9 6 6 8 8 8 8 8 9 9 10 11 12 14 16 18 20 21 23 26 28 29 29 30 30 30 30 31 32 32 32 32 30 29 29 30 31 33 34 36 37 38 39 39
63 63 63 62 66 71 70 65 61 59 59 61 60 56 51 46 42 39 36 30 26 22 19 14 10 5 1 2 4 6 5 4 6 9 10 9 8 6 6 6 7 4 2 4 6 7 7 7 8 9 10 11 12 13 15 17 19 20 22 23 25 27 29 30 31 31 32 32 33 34 34 35 35 33 31 31 31 33 34 35 36 38 39 40 39
62 61 61 63 68 70 66 62 59 57 57 58 56 52 47 42 39 36 31 27 23 20 17 13 8 6 7 8 8 7 7 8 11 13 11 9 7 6 6 5 4 3 3 4 4 6 7 8 10 10 11 12 12 13 15 17 18 19 21 23 26 28 29 31 31 32 33 33 34 35 35 36 37 35 33 33 34 35 36 37 38 39 40 39 37
62 59 61 66 69 66 61 58 57 57 57 54 51 47 42 38 36 32 27 24 21 18 15 11 10 10 10 9 9 9 11 13 13 11 9 8 7 5 4 3 3 3 4 5 5 7 7 8 9 9 10 12 14 15 17 20 21 22 23 25 27 29 31 32 33 34 34 34 34 35 36 37 37 35 34 36 37 38 38 39 39 40 40 38 35
58 58 64 67 64 59 57 55 52 52 53 51 47 42 37 35 32 27 23 21 18 15 12 11 11 11 11 10 10 12 14 13 11 8 7 7 5 3 1 0 1 1 3 4 6 7 7 8 8 10 12 14 17 19 20 21 22 23 24 26 28 30 32 34 35 36 37 37 37 36 36 36 34 34 36 38 38 39 39 40 41 41 39 37 35
56 61 64 63 58 55 54 53 51 50 48 45 42 37 34 32 28 23 20 18 14 11 10 10 11 11 11 11 12 13 14 12 9 8 7 5 3 2 1 1 2 4 4 5 6 7 9 11 11 13 15 17 19 20 21 22 23 25 26 28 30 32 34 36 38 40 41 41 40 37 36 35 34 35 36 36 37 37 39 41 41 40 37 35 33
60 62 60 56 55 53 51 50 50 48 44 40 36 33 30 28 24 20 17 14 10 9 9 9 10 11 12 12 13 13 12 10 8 7 5 3 2 1 1 1 3 5 5 6 9 11 14 16 15 15 16 18 19 21 22 24 25 27 29 31 33 34 36 38 39 40 41 40 38 35 34 32 32 33 34 35 36 36 37 38 38 35 33 32 31
60 57 54 53 52 51 49 49 48 44 39 35 32 29 28 25 21 17 13 10 8 8 8 8 9 10 12 13 12 11 10 8 6 5 2 2 2 2 4 5 6 7 7 9 12 14 15 16 16 16 18 20 21 23 24 26 28 30 32 33 33 33 32 31 29 27 28 28 28 28 27 26 28 30 31 32 31 29 30 32 31 29 28 28 29
55 52 52 51 49 49 48 47 44 39 33 29 28 27 26 23 19 15 10 7 6 7 7 7 8 9 11 11 10 8 7 6 5 3 1 2 3 4 6 6 7 8 8 10 12 14 16 19 20 20 21 22 24 26 27 28 29 30 29 26 24 21 20 17 15 15 17 18 20 21 21 22 24 26 27 26 23 22 24 26 25 25 26 26 28
51 50 49 47 46 47 46 44 40 34 28 25 25 25 25 22 18 13 9 5 5 6 6 6 6 7 8 7 6 7 6 5 3 2 3 4 3 3 4 5 7 9 10 12 15 19 22 24 23 22 21 22 23 23 23 23 23 21 17 13 11 10 10 10 10 12 14 16 17 19 20 21 22 23 23 22 20 20 20 20 21 24 26 27 28
49 48 46 45 45 45 44 41 36 29 24 23 23 24 23 21 17 12 8 5 5 5 6 6 5 5 5 4 5 6 5 4 3 4 6 7 6 3 4 7 10 11 13 17 21 25 25 23 21 19 17 16 15 14 13 13 12 9 6 4 4 5 6 7 9 11 13 15 17 18 19 20 21 22 21 21 20 19 18 19 22 25 25 24 26
45 43 43 44 44 43 41 37 30 25 23 23 23 23 22 19 16 12 7 4 5 5 5 5 4 4 4 6 7 5 4 2 2 4 7 10 8 5 6 10 14 16 19 23 25 24 22 20 19 16 12 9 7 6 5 5 4 1 2 3 4 4 6 8 10 12 13 15 16 17 17 19 20 20 19 19 19 18 19 21 21 21 21 22 24
42 42 42 43 43 41 37 31 26 23 22 22 23 22 21 19 15 11 7 4 4 5 4 4 2 3 5 7 7 4 3 4 6 6 7 10 11 8 8 12 16 20 24 27 26 23 22 21 19 15 12 8 6 6 5 3 3 3 5 6 6 7 7 8 10 12 13 13 14 14 14 14 14 15 16 16 16 16 18 19 18 18 19 21 23
41 41 42 42 41 38 32 26 22 22 22 23 23 22 21 19 16 12 8 4 4 5 4 4 4 5 6 7 6 5 6 7 7 5 4 6 11 12 12 13 17 20 24 25 23 21 22 21 18 15 13 10 8 7 6 5 5 5 5 6 6 5 4 5 7 9 10 11 12 12 12 11 11 12 13 13 12 14 16 17 16 17 18 20 20
42 42 42 41 38 33 26 21 20 21 22 23 24 23 21 19 16 12 9 5 5 5 5 5 6 7 7 7 6 6 6 5 6 6 3 0 4 9 13 15 17 20 22 22 21 20 20 20 17 14 12 10 9 8 7 6 5 6 7 8 8 6 4 3 3 3 5 7 8 10 10 11 10 10 10 10 10 12 14 14 14 15 17 18 19
Wind_Direction
286 287 288 290 290 292 293 295 295 295 295 294 294 295 298 300 301 302 305 306 305 304 304 304 303 301 298 295 292 290 289 290 290 289 287 283 279 276 272 269 264 258 254 252 252 252 251 248 244 242 243 246 246 244 241 238 239 240 242 245 247 245 244 243 242 241 241 242 243 243 243 242 242 243 243 243 241 238 233 230 228 227 227 227 228
291 293 293 293 294 297 300 300 300 300 300 300 300 301 302 305 306 308 310 310 309 308 307 307 304 300 297 293 292 291 291 289 287 286 286 285 280 275 270 266 261 257 254 250 248 248 249 249 247 243 241 242 243 244 242 239 237 237 237 240 244 245 244 243 242 241 241 241 242 244 244 243 242 242 242 242 241 239 237 233 230 228 228 227 227
295 298 298 300 302 304 305 305 306 308 309 309 309 309 310 311 312 312 311 309 308 306 304 303 299 293 289 285 285 288 288 288 287 286 286 287 286 280 273 267 261 255 253 251 248 246 245 246 247 245 242 241 240 241 241 239 239 238 236 236 238 241 243 244 243 241 241 242 243 245 245 245 244 242 241 241 241 241 240 238 235 232 230 229 229
300 304 307 311 313 313 313 313 314 315 316 315 314 314 315 316 316 313 308 304 301 297 295 295 290 283 280 278 277 279 282 285 287 288 288 289 291 288 279 272 265 256 250 250 250 247 245 244 245 246 244 242 241 241 240 238 237 237 236 234 234 236 239 244 246 244 242 241 242 244 244 245 245 244 243 243 242 242 242 241 240 238 236 233 232
308 312 316 319 320 320 319 318 318 318 317 317 316 316 316 316 315 310 302 297 294 289 289 290 286 279 276 274 274 275 277 281 285 287 288 289 293 293 288 279 272 264 253 248 248 248 247 244 242 243 243 243 242 242 241 239 237 237 237 236 235 234 235 239 244 246 245 243 242 242 243 244 245 245 245 244 244 243 242 242 242 242 241 238 236
316 320 323 324 323 320 318 318 319 319 318 317 316 316 316 315 313 307 300 296 292 289 291 291 288 285 281 277 275 276 277 279 282 285 287 288 290 293 293 288 278 270 263 254 248 246 246 246 243 240 240 241 242 242 241 241 240 239 239 240 239 237 235 235 238 242 246 247 245 243 243 244 246 247 247 247 246 245 244 242 241 241 242 242 240
322 324 326 325 322 319 319 320 321 320 318 315 315 316 317 314 313 309 302 298 294 293 294 294 291 289 286 281 278 278 279 279 281 283 284 287 289 290 292 291 285 277 272 263 253 248 246 247 246 242 239 238 239 241 241 241 242 240 239 239 240 240 239 237 236 237 241 245 247 245 243 243 244 245 246 246 246 246 245 245 244 243 243 243 243
325 326 325 324 321 320 322 323 322 320 318 316 316 317 316 314 313 309 301 300 300 296 295 294 292 289 283 280 281 280 278 278 280 284 286 288 289 288 288 288 287 283 278 268 258 254 251 250 249 246 242 238 236 237 239 240 241 241 240 237 237 239 241 240 238 237 238 241 245 246 245 244 243 243 244 245 245 246 245 244 243 243 243 243 243
324 325 325 323 321 322 324 325 323 320 319 318 317 316 315 315 314 307 301 302 303 300 295 292 292 293 287 282 282 281 279 278 280 284 288 292 290 286 284 283 283 283 281 274 266 259 255 253 252 250 247 244 239 235 234 235 237 238 240 239 237 237 239 241 241 239 238 239 243 246 247 246 245 244 244 244 244 245 245 244 242 242 243 242 241
323 323 323 322 322 324 325 324 321 319 318 318 316 314 314 315 312 308 305 305 305 303 298 293 293 296 295 289 285 283 281 280 282 283 286 292 293 285 282 282 282 282 280 277 274 268 260 256 254 253 251 249 246 242 237 234 234 234 235 237 238 237 237 239 241 241 240 240 241 244 247 248 248 247 245 244 244 244 244 244 243 243 242 242 242
324 323 323 321 322 323 323 320 317 316 317 316 314 313 315 315 312 310 308 307 306 304 299 295 294 296 295 292 288 286 284 283 283 284 284 288 290 285 280 280 280 281 280 277 274 271 268 265 259 254 251 250 249 247 243 239 235 233 231 232 234 236 236 238 239 240 241 242 242 244 246 248 250 251 250 248 247 245 245 244 244 243 243 243 243
325 324 322 321 322 322 320 318 316 316 317 317 316 315 314 314 312 311 309 308 306 303 300 298 297 296 295 294 291 287 285 285 284 285 286 285 284 281 277 277 276 277 280 279 275 272 272 273 270 260 253 251 251 249 247 244 239 235 233 230 230 231 233 236 237 238 240 242 244 245 247 249 250 251 251 250 250 249 247 246 244 243 243 243 243
322 320 320 321 323 321 319 318 318 318 319 319 316 313 312 312 310 309 308 308 306 304 301 300 299 298 297 295 292 288 285 284 284 285 285 282 278 275 274 273 271 272 275 276 275 273 272 272 274 271 262 256 254 252 250 247 243 238 235 232 231 229 230 233 236 238 239 241 243 245 247 249 250 250 248 248 248 248 248 247 245 243 242 242 243
320 320 321 322 322 319 318 320 320 320 320 318 314 311 311 310 309 308 308 308 308 307 304 300 299 299 296 293 290 289 286 283 283 283 282 279 277 275 274 272 268 266 269 269 268 270 270 272 274 274 270 264 261 258 254 251 248 243 238 233 232 231 230 231 233 236 238 239 241 242 243 245 247 247 247 246 246 246 246 246 246 244 242 240 241
323 322 322 321 319 318 321 323 322 320 318 318 318 315 312 310 311 311 310 308 309 309 306 301 298 297 293 290 290 289 285 281 280 279 276 275 277 276 272 271 266 262 263 264 265 267 269 272 274 272 269 267 266 263 257 252 249 247 243 236 232 230 230 230 230 232 235 238 240 241 242 243 243 244 245 245 246 246 245 245 245 245 244 241 239
323 322 322 322 322 324 325 325 323 321 318 318 319 317 315 311 311 313 311 308 309 309 306 300 297 295 290 288 289 287 283 279 276 276 275 274 274 273 270 268 263 259 260 262 262 263 264 267 272 272 270 268 267 266 260 252 248 247 245 240 234 229 227 228 228 229 232 235 239 241 243 244 243 242 242 244 245 246 246 245 244 244 245 243 241
324 325 326 328 329 329 329 327 325 323 320 319 319 317 315 311 311 312 309 306 307 307 305 299 297 294 289 286 285 284 284 281 277 275 275 276 274 272 269 266 261 257 258 258 259 260 260 263 268 271 272 271 267 265 261 252 248 246 244 242 237 229 225 225 226 227 229 231 236 239 242 243 243 241 240 240 242 244 246 246 245 244 244 245 244
329 329 331 334 335 333 332 331 327 323 320 319 317 315 313 309 309 308 305 305 306 307 306 303 299 295 291 287 284 285 286 285 282 278 276 277 276 272 267 264 260 257 255 255 256 257 259 260 262 264 267 268 267 264 259 251 247 244 242 241 238 230 225 225 225 226 228 230 232 235 237 239 240 240 239 238 239 240 243 245 245 245 244 244 244
332 333 334 337 338 337 335 330 325 320 318 315 313 312 310 306 304 302 303 305 306 306 307 304 299 296 293 289 286 288 289 286 284 282 279 276 273 271 267 262 260 257 255 253 254 256 258 260 260 260 261 264 267 265 259 252 248 244 239 237 236 231 227 226 225 224 226 228 230 231 233 234 235 236 236 237 237 238 240 242 243 244 243 242 242
332 333 336 338 338 337 333 326 319 314 311 307 305 306 305 302 300 300 301 303 306 308 305 300 297 295 293 290 288 290 291 288 285 282 279 275 274 273 268 262 259 258 256 253 253 255 256 257 259 261 261 263 268 267 261 253 249 245 239 235 234 232 230 228 227 226 225 225 227 227 229 229 231 232 233 234 236 237 237 239 240 240 241 241 240
332 334 336 334 334 333 332 330 327 323 318 312 308 307 304 300 299 300 299 298 301 302 297 295 293 291 290 288 288 291 291 289 286 281 275 272 274 275 271 262 256 255 255 253 252 254 255 255 259 263 263 263 267 266 262 257 250 245 243 239 236 233 232 230 230 230 230 229 228 226 225 225 226 228 229 231 233 235 237 238 238 237 238 238 238
335 337 332 329 330 331 333 336 338 338 336 331 326 323 314 302 297 299 298 294 292 289 287 289 287 284 284 285 289 292 292 291 288 283 276 271 272 275 273 266 257 252 251 250 250 251 252 253 255 260 262 261 262 261 260 260 255 248 245 242 238 236 235 233 231 232 233 234 234 232 229 225 224 225 226 228 230 232 235 237 238 237 236 236 236
339 335 329 328 330 333 335 337 340 342 341 339 336 334 328 313 300 295 291 287 286 283 280 281 280 279 281 284 290 293 293 292 289 285 280 273 271 272 271 268 261 253 248 246 247 248 250 250 250 253 257 257 257 256 256 257 257 255 251 246 241 238 237 237 236 235 235 236 237 237 235 233 231 229 227 227 229 230 232 235 237 238 239 239 237
338 333 331 332 335 336 336 336 339 341 340 339 336 333 329 320 308 298 290 285 282 280 278 278 278 279 281 284 290 292 292 293 290 286 283 276 270 268 267 265 261 254 248 243 242 243 245 247 247 249 252 253 255 253 249 249 251 253 254 253 249 243 239 238 238 239 238 238 238 238 238 238 238 237 234 233 233 232 233 234 236 238 240 241 241
336 334 335 337 337 336 336 336 337 338 338 337 335 332 329 324 317 309 300 292 286 282 280 279 277 279 281 284 288 290 291 292 290 287 283 275 267 262 261 261 259 256 250 244 241 239 239 240 240 243 245 248 251 250 246 244 245 248 250 252 253 250 245 239 237 237 239 240 240 239 239 239 239 240 239 239 239 238 238 238 238 238 239 240 242
335 336 337 337 337 337 337 337 337 338 336 335 335 334 331 328 325 320 314 307 299 291 286 282 279 280 281 283 285 288 289 289 288 285 278 270 262 257 258 260 260 257 252 247 242 240 239 239 238 239 241 243 246 249 248 245 243 245 247 250 252 252 251 245 239 237 238 240 241 241 241 241 240 239 239 240 241 241 242 243 243 243 242 241 242
335 336 336 336 336 336 335 334 336 338 336 334 334 333 332 329 326 323 319 316 311 304 298 293 289 286 284 284 286 286 286 285 283 280 275 267 260 255 256 260 260 257 253 249 245 241 240 240 239 240 242 244 246 247 249 248 247 247 247 248 252 253 253 249 242 241 240 239 240 240 241 242 242 240 239 239 240 240 241 242 243 244 244 244 244
335 336 336 335 335 335 334 334 336 338 337 334 333 332 332 331 328 325 321 318 314 308 305 302 297 293 291 289 286 283 283 283 283 279 273 266 259 254 255 258 259 256 253 250 247 244 242 240 241 242 243 244 244 243 245 248 248 248 247 246 248 251 254 251 247 247 246 242 238 237 237 239 240 241 240 240 240 240 241 241 242 243 244 244 245
335 335 335 335 334 333 334 334 335 337 336 334 333 333 332 331 329 326 322 319 316 311 309 306 301 298 297 293 284 279 281 284 284 277 268 261 257 254 253 253 254 254 254 253 251 248 246 243 242 242 242 242 241 240 242 244 244 245 246 246 246 249 251 251 252 254 254 247 238 233 233 234 236 238 240 240 241 241 242 242 242 244 244 245 246
335 335 334 334 333 332 332 334 335 336 336 334 333 332 332 331 329 327 323 320 317 315 314 312 305 300 298 292 282 277 281 283 282 274 264 258 254 251 250 251 255 258 259 259 258 256 254 251 247 244 242 240 239 240 242 242 242 243 246 247 248 249 250 252 255 257 255 250 241 235 234 234 236 238 240 242 243 244 245 246 245 246 246 247 247
334 334 333 334 333 332 332 333 334 336 335 333 331 331 332 332 330 327 325 322 318 315 316 314 306 299 296 291 281 275 277 279 279 274 266 261 254 251 252 258 264 265 263 263 262 260 259 256 253 248 243 240 240 241 243 244 241 242 248 250 249 250 253 255 256 255 252 249 243 237 236 236 238 241 242 244 245 246 247 248 249 249 249 249 248
333 333 333 332 332 332 331 331 333 334 334 333 332 332 333 333 331 328 326 324 319 316 316 315 307 298 295 289 279 274 276 277 277 273 268 263 258 257 260 266 269 267 266 268 270 269 265 260 255 249 243 241 241 241 244 244 241 241 247 249 245 248 254 256 256 254 251 248 243 238 236 236 238 241 243 245 245 246 247 247 248 249 250 250 249
332 331 331 331 332 331 330 330 332 334 333 332 332 332 333 333 331 328 326 324 320 316 316 316 308 298 294 288 279 276 275 273 272 269 266 265 266 269 272 273 273 272 274 277 275 272 266 257 250 244 242 243 244 243 244 244 242 241 244 244 241 244 251 254 255 253 249 246 242 239 239 239 239 240 242 244 245 245 245 246 247 248 249 250 250
331 331 331 331 331 330 329 330 333 334 332 331 332 333 333 333 331 329 328 326 324 319 317 316 310 301 296 288 277 269 265 266 267 265 265 271 276 281 281 277 273 261 242 31 327 279 259 242 228 216 226 238 241 241 241 240 237 235 235 238 241 246 250 252 254 252 248 244 241 241 242 242 243 243 244 245 245 245 245 246 247 248 249 250 251
330 330 331 331 330 329 328 331 333 333 332 332 333 333 333 333 332 332 332 331 329 325 322 319 313 305 297 282 264 259 258 261 264 264 272 283 285 278 261 216 139 123 111 100 105 118 129 167 188 198 220 230 224 224 229 229 229 230 232 236 242 247 250 251 251 250 247 244 242 242 244 245 246 248 248 248 248 248 247 247 248 249 250 250 251
331 330 330 331 329 327 328 331 333 333 333 333 333 334 334 334 335 336 336 335 332 331 329 325 318 308 292 268 254 253 250 248 252 264 286 139 128 130 135 137 133 129 124 137 164 176 185 191 190 193 210 226 224 219 224 229 233 238 239 239 241 246 249 250 249 248 248 247 246 247 248 249 250 251 251 252 252 251 251 251 251 252 253 254 253
330 328 328 328 326 326 329 332 333 333 333 332 333 334 335 336 338 338 337 336 337 339 340 337 330 317 291 259 238 198 171 179 166 118 118 121 120 117 120 131 138 140 153 182 191 197 204 207 207 207 219 233 234 230 231 232 234 238 241 240 241 244 248 250 250 250 251 252 252 252 253 254 254 254 253 254 254 254 254 253 254 255 256 257 258
327 325 325 325 324 326 330 332 333 334 333 333 334 336 337 338 339 339 338 340 346 351 355 356 354 356 33 127 130 128 128 122 116 119 120 115 108 99 97 111 129 141 173 195 200 212 230 247 249 243 245 248 243 240 240 239 238 240 243 245 244 245 248 250 251 251 251 252 253 253 253 254 255 256 255 255 255 255 255 254 254 255 256 257 258
325 323 323 323 323 327 331 333 334 335 334 334 335 336 338 339 340 340 341 347 356 3 8 17 36 64 93 109 112 111 114 118 121 122 118 115 112 100 87 95 116 146 184 198 216 231 243 254 254 253 259 261 257 251 249 247 246 246 248 252 253 254 255 255 255 254 253 252 253 254 253 254 256 257 257 257 257 257 256 255 254 255 256 256 255
323 322 321 322 324 328 332 334 336 335 334 335 336 337 339 341 341 342 346 355 5 13 20 39 66 84 97 104 102 106 116 120 121 117 112 112 112 104 110 132 145 168 184 195 218 233 239 246 253 264 275 276 272 265 257 254 251 248 247 250 251 253 255 257 257 257 256 256 256 256 256 256 258 260 260 259 259 259 258 257 257 257 258 258 256
322 320 320 322 326 330 333 335 336 335 334 335 336 338 341 342 342 345 353 2 13 24 38 61 79 87 94 96 100 111 118 118 115 110 108 107 101 96 115 122 321 264 231 233 244 255 265 269 270 272 270 265 263 262 260 260 259 257 256 255 253 253 254 256 258 259 260 260 260 261 262 261 261 261 260 258 257 256 256 256 257 258 258 258 254
320 319 321 325 329 332 334 336 337 337 336 336 337 339 344 344 344 349 358 9 23 40 57 74 81 85 90 95 104 113 119 121 118 111 103 94 80 90 113 322 290 273 274 281 292 308 313 305 293 279 270 265 264 266 268 269 269 269 268 266 264 263 261 260 260 258 258 259 261 263 264 263 261 259 256 254 253 253 253 254 255 255 254 252 246
319 321 326 330 332 334 336 337 338 339 339 338 338 341 345 346 345 351 1 14 36 57 68 77 85 89 92 96 104 112 117 120 119 114 106 93 74 47 329 303 298 307 323 334 334 329 319 310 303 291 282 278 276 275 275 274 274 274 273 272 271 269 267 265 261 257 255 257 259 259 258 256 253 251 251 252 253 252 250 248 248 248 246 243 237
322 326 331 334 334 336 338 339 340 341 341 340 340 343 348 348 346 351 3 22 52 70 76 86 95 94 94 100 107 113 116 113 109 112 116 99 68 357 332 334 339 343 347 341 332 325 317 312 307 297 289 285 281 279 278 278 278 278 278 277 274 269 265 262 257 252 249 249 249 248 247 247 247 248 250 253 253 249 244 240 239 239 238 233 227
327 332 335 335 336 337 339 341 343 344 344 344 344 347 350 350 348 353 8 35 72 81 82 97 108 105 108 115 114 106 103 103 105 107 73 19 5 344 340 349 350 343 333 325 322 321 319 315 308 300 291 283 278 278 279 280 281 283 284 282 275 264 254 245 238 233 231 232 235 237 238 242 246 248 249 248 245 240 235 232 231 230 228 223 221
334 336 337 337 337 339 341 344 346 349 350 351 352 351 352 351 350 356 13 47 87 91 86 99 119 125 127 124 98 79 77 72 65 42 2 355 356 356 360 356 341 328 320 320 324 324 322 318 313 306 297 289 284 282 282 284 288 291 289 280 263 242 222 212 214 221 225 229 232 234 237 241 244 243 240 235 232 230 226 221 218 219 218 217 218
338 339 339 339 340 343 345 347 350 354 357 359 359 356 355 354 354 359 16 56 101 106 95 97 117 139 145 114 71 68 75 73 49 3 358 12 28 35 7 346 339 336 335 334 332 328 326 326 324 318 309 301 296 291 290 296 303 303 291 266 247 231 220 218 222 227 231 234 235 237 240 240 238 235 230 225 223 218 209 205 207 210 210 209 211
342 341 342 343 345 348 350 351 354 0 4 5 3 360 359 360 1 5 19 60 113 120 112 111 114 116 110 92 81 81 92 85 32 6 14 16 13 359 345 345 349 352 350 343 337 337 342 345 343 340 337 329 327 332 333 329 333 354 140 147 159 188 207 216 220 224 229 234 236 239 241 239 236 234 229 225 222 211 199 199 204 205 203 202 203
345 345 345 347 350 353 354 356 1 6 10 10 7 4 5 7 8 12 24 66 123 126 122 122 101 68 84 94 91 85 74 40 18 19 20 6 356 351 347 350 354 355 350 345 344 353 2 1 357 2 12 17 27 39 45 57 76 96 124 142 154 170 189 203 212 220 226 229 231 232 233 234 238 238 234 232 225 212 201 200 201 199 199 200 200
348 348 350 353 355 356 358 2 8 12 14 14 12 12 12 12 13 19 29 63 119 120 105 92 80 86 105 112 103 79 62 42 25 27 28 356 352 351 346 350 358 356 350 349 354 5 11 8 7 16 26 33 47 61 74 86 85 93 111 122 127 137 161 194 208 218 223 224 223 222 219 218 222 229 234 233 223 209 204 202 200 198 198 197 197
351 351 354 357 360 1 4 11 16 19 20 18 17 17 16 16 18 23 31 58 105 109 96 89 95 101 105 105 96 77 62 31 360 4 28 335 327 338 338 345 356 357 356 0 8 14 16 15 17 22 29 37 51 66 78 82 87 105 108 100 98 101 103 122 161 200 212 213 212 207 199 194 195 204 218 224 214 202 198 197 198 199 199 195 192